Home   Weather   Mildura   Past weeks

Flag for Australia Past Weather in Mildura, Victoria, Australia — Yesterday and Last 2 Weeks

Now
72 °F

Mild.


Feels Like: 76 °F
Forecast: 53 / 75 °F
Wind: 17 mph from Southwest

Location: Mildura Airport

Current Time: Dec 8, 2016 at 6:52:38 pm

Latest Report: Dec 8, 2016 at 6:00 pm


Visibility: N/A

Pressure: 29.73 "Hg

Humidity: 29%

Dew Point: 38 °F

Location of MilduraLocation

Past Weather in Mildura — Graph

°F

Mildura Temperature Yesterday

Maximum temperature yesterday: 88 °F (at 6:00 pm)
Minimum temperature yesterday: 54 °F (at 4:00 am)
Average temperature yesterday: 76 °F

High & Low Weather Summary for the Past Weeks

 TemperatureHumidityPressure
High94 °F (Dec 3, 6:00 pm)89% (Dec 8, 9:00 am)30.20 "Hg (Dec 8, 9:00 am)
Low45 °F (Nov 24, 6:00 am)9% (Nov 29, 7:00 pm)29.57 "Hg (Dec 8, 4:00 am)
Average70 °F42%29.91 "Hg
* Reported Nov 23 5:00 pm — Dec 8 5:00 pm, Mildura, Weather by CustomWeather, © 2016

Note: Actual official high and low records may vary slightly from our data, if they occured in-between our weather recording intervals... More about our weather records

Advertising

Mildura Weather History for the Previous 24 Hours

Scroll right to see more
 ConditionsComfort  
Time TempWeatherWind HumidityBarometerVisibility
5:00 pm
Thu, Dec 8
74 °FMild.20 mph28%29.70 "HgN/A
4:00 pm74 °FMild.21 mph24%29.69 "HgN/A
3:00 pm74 °FPassing clouds.22 mph24%29.69 "Hg19 mi
2:00 pm74 °FMild.20 mph28%29.70 "HgN/A
12:00 pm68 °FOvercast.14 mph53%29.70 "HgN/A
11:00 am62 °FCool.13 mph78%29.70 "HgN/A
10:00 am62 °FCool.15 mph87%29.67 "HgN/A
9:00 am63 °FRain. Overcast.17 mph89%29.65 "Hg3 mi
6:00 am78 °FOvercast.14 mph44%29.59 "HgN/A
5:00 am80 °FPleasantly warm.15 mph38%29.57 "HgN/A
4:00 am79 °FPleasantly warm.16 mph38%29.57 "HgN/A
3:00 am78 °FPleasantly warm.14 mph36%29.59 "HgN/A
2:00 am79 °FPleasantly warm.16 mph33%29.60 "HgN/A
11:00 pm
Wed, Dec 7
80 °FPleasantly warm.13 mph31%29.70 "HgN/A
10:00 pm76 °FMild.7 mph37%29.72 "HgN/A
9:00 pm81 °FPleasantly warm.9 mph30%29.72 "HgN/A
8:00 pm85 °FPleasantly warm.13 mph25%29.74 "HgN/A
7:00 pm87 °FPleasantly warm.12 mph24%29.75 "HgN/A
6:00 pm88 °FHot.10 mph22%29.77 "HgN/A
Weather by CustomWeather, © 2016

See weather overviewHow to use our weather pages